Weather in Beibei

China     29°33′03″N   106°31′09″E
temp.,
°C
wind,
m/s
gust,
m/s
humid.,
%
clouds,
%
prec.,
mm/h
press.,
hPa
HPBL,
m
18 january, mon
mon1823:00+6s127937 0.0 1034107
02:00+5se117931 0.0 103241
05:00+4ese11800 0.0 103129
08:00+4ene11820 0.0 103038
11:00+7ene12630 0.0 1030435
14:00+10ene23430 0.0 1026762
17:00+11ne34400 0.0 1022716
20:00+10ne36480 0.0 1021322
19 january, tue
tue1923:00+8nne23540 0.0 1021127
02:00+7ne11590 0.0 102034
05:00+6ne11620 0.0 101835
08:00+6ne11640 0.0 101833
11:00+9nne124913 0.0 1019359
14:00+12ene114033 0.0 1016709
17:00+12ne224399 0.0 1015547
20:00+11ne244899 0.0 1016332
20 january, wed
wed2023:00+11n1352100 0.0 1019226
02:00+10nne2358100 0.0 1019207
05:00+10ne1267100 0.1 1019223
08:00+9nne1170100 0.1 1020212
11:00+10nw1168100 0.0 1022459
14:00+11wnw1164100 0.0 1020803
17:00+11ne1167100 0.0 1019675
20:00+10ne1273100 0.1 1021394
21 january, thu
thu2123:00+9nne1182100 0.6 1022229
02:00+9sw1185100 1.0 1022226
05:00+9sw1188100 0.4 1021224
08:00+9sw0187100 0.4 1022227
11:00+9sw1286100 0.0 1024255
14:00+10wsw0181100 0.1 1021357
17:00+10ssw2379100 0.0 1020349
20:00+10sw1284100 0.4 1022191
22 january, fri
fri2223:00+10wnw1188100 0.8 1023178
02:00+9sw2291100 1.3 1023218
05:00+9ssw2392100 0.9 1021211
08:00+9ssw2392100 1.4 1022235
11:00+10s1286100 0.1 1022274
14:00+14se116388 0.1 1019617
17:00+14e11578 0.0 1017818
20:00+13ne23674 0.0 1017148